Location: Karaa?a�
(36.7158°N, 30.4165°E)
Time: 01:22:16
(UTC+00:00)

Cosmos 1703 - Pass Details

Date: 09 April 2020
Orbit: 523 x 541 km, 82.5° (Epoch: 06 June)

Event Time Altitude Azimuth Distance (km) Brightness Sun altitude
Rises 17:25:27 0° 356° (N) 2,704 7.2 -12.0°
Reaches altitude 10° 17:27:38 10° 359° (N) 1,809 6.2 -12.4°
Maximum altitude 17:31:35 65° 82° (E) 597 3.2 -13.1°
Drops below altitude 10° 17:35:31 10° 165° (SSE) 1,798 5.6 -13.9°
Enters shadow 17:35:48 - 165° (SSE) 1,916 5.7 -13.9°
